Temp
18 18 19 20 19 20 21 21 21 21 20 20 20 20 20 20 20 19 20 25 26 26 26 26 26 25 26 28 27 27 30 31 31 30 31 28 29 26 26 27 24 25 27 25 20
17 18 19 19 19 20 20 21 21 21 21 20 20 20 20 20 19 17 26 25 25 25 24 26 27 27 28 28 28 30 30 31 31 31 30 29 29 27 27 26 24 23 22 21 20
18 18 18 19 19 20 21 20 20 20 20 20 20 20 19 19 20 26 25 25 25 25 25 26 26 28 28 28 28 28 31 31 30 29 29 29 28 27 27 27 26 23 22 21 20
18 18 18 18 19 21 21 20 20 20 20 20 20 19 19 18 27 25 26 26 25 25 25 25 26 28 28 28 28 29 29 28 27 28 28 28 28 25 26 23 24 23 21 20 20
18 17 18 18 20 21 20 20 19 19 20 19 19 19 18 21 24 25 26 26 24 24 26 26 27 27 29 28 28 28 29 26 26 26 27 27 26 24 22 21 22 21 19 18 18
18 18 18 19 20 20 20 20 19 19 19 19 19 18 18 23 24 24 24 24 24 24 24 26 27 27 28 28 28 26 26 26 26 26 25 26 24 25 20 21 21 21 18 18 18
18 18 18 19 19 20 20 19 19 19 19 19 18 17 18 24 24 24 24 24 25 25 25 24 26 28 28 27 25 25 26 26 25 26 24 26 25 25 21 21 20 20 18 17 16
18 18 18 19 19 20 20 19 19 19 19 18 17 16 22 24 25 25 24 24 24 25 25 26 25 27 28 27 26 26 26 28 26 26 25 26 29 23 21 21 20 19 18 17 16
18 18 18 19 19 20 19 20 19 18 18 17 16 17 24 24 24 25 25 26 24 24 25 25 26 27 27 27 27 26 28 26 26 26 26 26 30 23 21 21 20 20 19 18 16
18 18 18 19 20 20 20 19 19 17 16 15 15 19 24 26 26 25 25 25 26 25 26 26 26 27 26 27 27 28 27 26 27 26 26 26 27 22 21 21 21 19 18 18 17
18 18 19 19 20 20 20 18 20 20 16 24 24 24 25 25 26 26 25 26 27 27 27 25 27 27 28 28 27 28 27 27 28 26 26 26 27 23 21 21 21 20 19 18 17
18 18 19 20 21 21 20 22 21 20 21 21 21 21 22 24 25 26 25 28 27 27 26 26 27 27 26 26 27 27 27 27 26 26 26 27 26 25 22 22 22 21 20 18 17
19 19 19 20 21 20 19 20 19 19 21 24 23 23 24 24 25 26 28 27 27 26 27 27 28 26 26 25 26 26 27 27 28 25 26 25 26 26 23 23 22 22 21 19 18
19 19 19 20 20 19 19 19 19 19 24 27 27 26 25 25 27 27 27 28 27 27 26 27 28 27 26 27 27 26 27 28 27 26 27 26 27 28 28 22 21 21 20 20 18
19 19 19 20 19 19 20 20 20 19 24 27 28 26 25 27 27 28 26 28 28 27 26 28 27 26 27 28 27 28 28 27 27 27 27 24 26 28 23 24 24 22 21 19 18
20 20 20 20 20 21 21 20 20 25 24 26 27 27 27 27 27 27 28 28 27 27 26 28 27 27 29 28 27 29 27 24 24 26 24 27 26 29 26 27 28 25 21 18 17
20 20 20 20 21 21 21 21 25 23 25 25 26 26 26 25 26 26 26 26 26 26 26 27 28 28 27 28 27 27 27 27 26 25 26 26 25 28 26 25 24 25 20 18 17
21 20 20 20 21 22 21 24 22 22 23 25 25 25 24 24 25 25 25 25 25 24 25 25 26 26 26 27 28 26 27 27 25 26 27 24 25 28 19 19 20 22 20 18 17
22 21 20 21 21 20 23 22 21 21 22 22 24 23 23 23 23 25 24 23 23 23 23 24 25 26 26 27 26 26 26 26 26 25 25 28 25 20 20 18 18 19 18 17 16
22 20 20 21 21 21 23 20 22 21 21 22 22 22 22 22 22 23 22 21 21 22 21 23 22 25 25 26 25 25 24 25 25 24 25 27 25 26 23 20 16 16 16 16 16
21 23 22 23 22 22 21 21 22 22 21 22 21 21 21 21 21 22 21 20 21 21 22 21 21 24 24 25 24 25 24 22 22 22 24 24 25 21 20 19 17 16 16 16 16
19 23 22 23 22 18 20 20 19 20 20 20 20 20 20 20 20 21 20 20 20 20 19 19 19 20 23 24 22 23 23 22 22 22 22 21 23 20 18 18 17 16 15 16 16
21 20 22 21 21 20 19 19 19 19 18 18 19 18 19 19 19 20 19 21 20 20 19 19 18 17 21 22 21 22 20 20 20 20 21 21 23 17 15 16 16 16 16 15 15
20 21 20 17 15 18 18 17 18 18 17 17 17 18 17 18 18 18 18 19 19 19 18 17 17 15 15 15 16 19 18 18 18 19 21 21 22 20 16 16 16 15 15 14 13
17 16 15 17 17 16 16 16 16 16 17 17 17 17 15 16 17 17 18 17 18 16 17 17 17 18 18 16 13 13 16 17 18 18 19 20 19 19 17 18 17 16 15 14 13
19 18 15 14 14 16 14 15 15 15 16 16 16 16 16 16 16 16 16 16 16 15 15 14 16 15 17 19 15 13 15 14 14 15 17 16 18 15 16 18 16 15 15 14 12
12 13 17 12 14 16 15 15 15 14 16 17 16 15 16 17 16 15 14 14 14 14 14 13 14 13 16 17 18 17 14 14 12 12 11 15 14 14 15 16 16 15 14 12 12
Height
809 806 804 802 801 799 798 796 796 795 794 793 791 789 787 785 783 781 779 773 772 773 776 779 780 781 782 783 784 786 797 800 794 796 786 785 789 794 795 797 803 803 804 810 822
807 803 801 800 798 797 795 794 793 793 792 790 789 787 785 782 780 776 769 769 770 772 773 777 779 781 782 783 784 785 793 789 777 777 781 782 786 792 796 799 808 810 813 816 822
804 801 800 798 796 794 793 792 791 791 790 788 787 785 783 781 779 767 767 766 768 770 771 775 777 778 783 783 783 786 787 777 777 776 777 780 788 789 794 800 799 808 813 817 822
803 800 798 796 794 793 791 790 790 789 788 786 785 784 782 781 782 766 765 763 765 769 772 775 777 780 783 786 781 787 779 780 779 778 779 782 784 797 797 805 801 809 815 819 823
802 799 796 793 791 790 790 788 788 787 786 785 785 783 782 780 772 766 763 761 764 769 772 773 776 780 782 780 783 785 780 782 781 781 780 782 790 797 808 809 810 815 821 825 827
800 797 794 791 790 788 788 787 786 785 785 784 783 783 783 780 767 767 765 764 766 770 773 774 773 775 778 780 781 784 783 785 783 785 789 787 798 793 812 812 814 816 823 827 830
799 795 792 790 788 787 786 785 784 784 783 783 783 782 782 771 765 766 767 767 768 769 772 773 774 775 775 781 781 784 790 787 790 787 792 788 801 798 807 812 815 820 826 830 833
796 794 791 788 786 785 784 784 783 782 782 783 782 781 774 763 763 763 765 767 769 770 771 772 773 774 775 777 781 788 788 793 791 789 793 791 792 802 807 811 816 821 825 831 834
795 792 789 787 785 784 783 782 782 781 781 782 783 781 770 763 762 760 762 763 767 770 772 773 774 777 777 783 790 793 797 798 795 788 791 793 786 800 807 811 816 821 825 829 834
794 790 788 786 785 783 782 781 780 781 781 782 782 783 765 763 760 759 761 763 765 769 772 774 778 782 785 786 802 795 797 797 792 790 793 795 792 805 808 810 814 821 826 830 833
791 789 786 785 784 782 780 780 782 781 781 772 769 768 763 761 759 758 759 762 765 769 778 779 783 788 783 781 784 785 792 791 781 784 792 791 787 803 807 809 812 816 822 826 830
789 786 785 783 782 781 780 781 783 786 780 768 768 768 764 764 765 758 759 762 767 776 778 783 787 777 780 784 786 789 794 791 787 782 788 784 789 794 803 801 803 809 815 821 828
786 784 783 782 781 781 781 782 783 784 784 767 764 763 761 763 764 760 757 760 767 776 776 781 774 774 779 788 790 789 789 790 786 792 786 792 791 789 794 795 799 803 807 814 820
784 783 782 781 783 782 782 782 780 779 783 773 762 761 762 761 763 754 754 758 768 773 778 775 766 773 779 781 780 789 775 775 782 792 796 785 794 774 771 793 797 796 800 805 814
783 782 781 780 782 783 783 779 778 780 805 771 764 759 760 764 761 756 754 755 765 770 774 771 770 774 775 768 768 772 765 775 777 781 785 795 796 771 785 786 779 778 785 796 807
782 781 781 781 782 782 780 778 779 789 811 783 769 770 767 764 762 757 757 755 757 767 769 762 760 762 758 758 761 757 770 783 787 784 798 778 786 765 775 762 749 759 779 792 803
782 782 781 783 784 780 779 779 791 810 787 793 785 775 776 780 773 771 771 774 778 783 777 765 761 755 754 762 759 762 772 783 790 795 784 768 779 758 757 760 761 755 775 791 799
784 783 784 784 782 779 778 784 815 810 803 790 787 782 792 788 784 780 778 782 778 780 783 785 779 764 758 759 759 763 761 770 789 780 767 774 771 750 771 770 764 762 773 788 797
786 786 787 786 783 780 781 808 825 819 808 804 793 798 798 795 796 785 789 795 789 787 793 786 780 760 757 754 759 763 768 757 764 767 770 750 756 772 769 773 771 770 778 788 794
787 787 788 786 783 781 790 818 816 813 809 803 811 808 810 806 801 798 797 804 802 796 793 784 789 764 761 756 758 760 761 769 768 778 773 749 761 751 762 770 778 782 784 790 797
788 790 791 786 785 789 811 817 815 810 809 809 813 812 812 812 808 802 803 805 801 797 789 792 789 773 763 761 764 762 763 773 773 773 772 770 758 762 767 772 777 781 787 793 797
791 801 795 788 800 815 818 820 819 818 815 814 813 815 815 813 812 807 809 806 804 803 806 801 800 791 771 759 760 760 762 765 772 773 772 778 762 764 769 775 781 782 789 794 801
800 805 800 791 812 820 822 823 824 823 825 824 822 823 819 819 819 811 811 802 804 804 807 801 806 810 777 767 766 765 769 768 769 771 772 778 759 774 776 781 784 782 785 798 806
802 810 812 815 828 823 828 833 831 827 829 829 829 823 825 822 820 819 815 807 806 805 804 805 808 818 818 811 801 787 780 779 775 773 765 764 759 765 778 779 784 787 791 793 803
809 825 829 830 831 833 833 839 838 836 831 831 830 831 834 831 824 821 816 812 806 809 806 806 806 801 795 798 806 813 792 784 780 776 776 766 773 772 776 773 778 785 793 801 807
812 820 831 839 839 836 841 842 843 840 838 836 836 832 830 830 827 826 822 820 817 813 811 811 803 803 789 778 794 801 796 792 798 795 783 785 774 786 777 768 779 786 792 800 809
820 822 823 845 842 839 842 842 841 843 837 834 834 833 829 824 824 824 822 821 821 821 816 816 811 810 789 782 775 784 796 794 805 809 814 791 797 792 784 781 784 791 798 806 811
Wind_Speed
15 14 13 13 12 13 12 11 11 11 10 10 10 11 11 13 15 10 7 7 2 11 12 7 2 5 4 3 3 2 4 7 6 7 4 8 8 3 3 8 5 3 3 19 21
15 15 13 12 12 12 12 11 10 11 10 10 10 10 10 13 13 10 9 8 9 5 13 13 5 6 4 4 4 5 8 11 6 8 6 10 9 10 6 10 6 12 17 24 22
16 15 14 14 13 11 11 10 9 9 9 9 9 9 9 10 4 3 0 4 12 8 8 10 8 4 4 3 5 5 10 9 5 8 7 11 10 4 13 7 7 16 16 19 21
17 16 14 13 12 11 10 10 8 8 9 9 8 7 8 3 1 1 11 9 13 15 11 7 4 7 5 7 5 5 7 4 2 8 8 9 11 7 1 5 10 16 15 17 17
17 17 14 13 10 9 10 8 8 8 9 7 7 5 2 2 6 8 8 2 18 16 9 5 6 4 6 4 5 5 1 2 3 7 7 11 5 8 7 9 13 16 13 13 15
17 16 15 12 10 8 8 8 7 7 6 5 4 3 1 4 2 6 8 13 16 11 6 5 3 3 3 3 4 1 3 6 5 8 4 10 4 3 6 10 12 14 13 11 14
17 17 14 12 9 8 7 7 7 6 5 4 2 2 2 10 3 7 4 1 14 9 5 4 2 1 1 4 4 5 4 6 5 5 3 9 4 4 13 12 13 13 12 11 11
16 17 15 11 9 7 6 7 6 5 4 3 1 1 6 4 7 11 8 6 7 7 3 1 5 1 1 6 3 3 3 7 4 6 5 5 16 7 14 14 14 13 13 12 10
15 16 15 11 8 6 7 6 5 4 3 1 1 1 6 3 5 3 10 6 9 4 3 6 3 2 3 4 3 2 5 8 4 8 5 10 9 8 14 14 14 13 12 11 11
14 15 14 11 8 6 6 5 4 3 0 1 1 3 5 1 6 0 8 11 4 7 4 2 2 3 3 6 6 7 4 5 10 11 9 12 9 9 13 14 14 13 12 11 11
12 13 12 9 6 5 5 1 2 2 2 6 6 5 10 9 5 2 4 9 4 2 3 1 4 7 7 8 1 6 6 8 10 6 13 17 16 10 14 14 15 15 15 14 12
10 11 10 7 4 4 4 2 3 3 7 7 10 8 11 4 4 2 10 5 5 5 5 3 7 7 3 5 6 7 6 10 3 8 14 16 19 11 16 18 19 18 17 16 13
8 9 8 5 3 2 1 2 2 9 3 5 4 3 3 8 5 4 8 4 3 6 6 6 3 8 8 7 8 7 10 9 11 3 7 3 14 14 11 14 17 18 17 17 18
7 7 5 4 3 3 1 3 17 7 2 8 9 2 3 1 2 5 9 3 2 6 5 7 4 9 8 10 13 10 15 15 13 8 12 14 14 18 18 17 18 20 21 20 18
6 6 3 1 1 1 4 19 4 3 3 12 9 1 2 1 5 4 4 3 8 7 6 7 6 7 9 14 14 10 3 12 13 16 8 7 7 12 5 15 23 25 25 22 20
5 5 3 2 1 3 16 2 2 2 5 6 7 8 6 6 5 8 2 2 2 5 6 12 2 5 12 6 14 4 3 4 2 6 9 14 13 13 9 17 22 20 22 22 22
7 6 5 4 3 13 16 1 1 5 7 10 9 8 7 10 9 9 7 7 4 4 7 8 12 6 8 13 8 8 7 8 9 7 13 6 13 16 7 7 9 11 21 22 22
9 10 10 11 11 12 3 3 9 7 6 8 7 5 6 12 6 9 9 7 7 6 3 4 6 5 4 7 6 9 9 10 18 14 14 6 9 6 4 9 9 8 19 22 23
11 12 13 15 16 13 3 7 4 5 9 8 5 5 6 8 9 10 6 9 8 13 6 5 7 5 7 5 3 3 7 5 9 6 10 15 5 4 2 6 5 10 18 22 22
2 3 12 19 16 5 6 5 3 9 6 2 7 8 8 10 11 10 6 7 10 12 9 4 7 7 3 3 2 4 2 5 4 12 19 11 6 2 6 4 5 10 15 19 21
3 3 19 15 8 7 4 4 4 12 11 9 6 4 5 7 5 7 4 6 12 17 9 10 5 9 6 6 7 4 7 2 1 3 7 10 3 1 6 5 7 10 13 18 20
4 3 21 9 5 2 3 3 4 8 11 7 5 6 6 7 5 5 7 6 11 12 9 5 6 10 16 3 3 3 3 3 6 8 4 3 7 2 3 2 7 12 13 18 18
3 2 15 7 4 3 3 4 6 9 8 8 9 6 6 4 5 6 7 12 9 14 12 6 3 8 12 6 3 5 1 2 3 2 10 7 5 3 7 6 9 14 17 15 16
3 2 4 5 3 3 2 5 5 7 4 7 7 5 8 6 3 6 7 7 15 12 5 3 4 8 5 9 11 13 3 5 3 4 7 9 13 3 3 7 9 10 15 17 17
4 2 1 3 6 6 3 3 5 6 6 10 3 9 5 4 8 3 11 16 10 8 6 5 9 14 17 15 3 14 8 8 6 6 6 5 7 9 11 10 10 13 16 16 18
2 3 3 3 2 4 5 3 6 5 3 2 6 9 5 4 6 17 18 15 6 9 6 3 3 10 21 17 14 13 19 3 8 9 6 10 12 16 15 3 11 15 18 18 17
4 4 3 2 2 1 2 2 3 5 2 2 7 6 7 8 12 16 13 10 8 4 4 4 5 4 10 8 11 11 5 4 6 4 4 5 10 15 8 5 10 14 16 17 16
Wind_Direction
331 327 317 311 309 310 308 312 316 310 311 313 312 314 316 313 310 296 250 232 210 221 206 186 116 127 128 158 122 156 187 206 214 202 217 162 158 105 120 120 71 39 105 128 138
337 336 323 315 311 308 309 314 317 313 314 314 311 315 320 320 314 260 265 251 220 218 186 190 167 144 140 170 165 205 211 210 212 202 212 175 177 136 154 138 90 95 108 126 135
343 340 329 320 313 310 311 314 315 317 314 311 313 318 325 330 295 239 32 337 192 159 157 171 135 151 160 169 185 172 220 219 234 210 188 176 154 128 149 175 157 146 131 129 133
346 338 331 331 324 316 316 315 318 319 315 311 312 326 324 341 320 335 319 289 188 169 142 129 128 155 168 184 177 223 233 241 339 199 177 180 142 112 93 87 128 134 131 133 138
345 344 335 335 331 323 316 314 320 321 314 311 318 344 357 259 253 325 333 97 159 174 166 155 158 151 189 181 158 222 221 138 111 156 175 145 144 126 106 112 124 127 124 128 125
344 345 339 333 331 326 316 314 317 317 313 315 329 347 269 271 203 73 78 116 148 148 167 171 188 191 125 143 198 45 127 115 129 142 111 158 126 169 147 141 133 138 129 129 133
344 344 339 332 331 327 320 321 319 315 309 308 343 3 254 256 218 230 351 155 166 160 162 206 142 198 141 134 135 122 130 120 131 145 125 146 178 204 146 154 140 140 129 125 128
341 345 340 330 325 323 326 323 313 313 319 329 346 34 255 252 280 264 235 176 174 194 184 146 182 337 354 116 94 126 130 209 152 178 155 225 218 154 157 160 154 152 144 138 134
336 341 341 332 327 334 333 323 316 320 319 276 33 35 275 249 301 324 185 166 158 161 170 97 141 100 133 136 127 75 203 212 197 198 164 206 224 166 167 173 162 163 160 155 143
333 339 341 336 341 352 332 314 312 286 288 285 233 265 246 7 315 127 163 148 124 127 105 100 71 150 131 187 199 196 216 214 222 191 198 203 233 155 179 183 174 173 170 170 165
329 333 341 348 355 351 350 17 287 181 170 256 289 282 292 322 298 135 148 148 120 159 160 96 197 201 181 196 157 205 227 240 239 195 202 222 235 189 187 193 190 186 186 183 177
321 330 342 351 356 354 32 51 84 75 313 253 263 263 261 282 310 293 157 156 173 184 137 173 236 213 158 184 168 176 204 244 263 188 202 226 242 195 196 207 205 196 195 188 174
321 328 338 345 348 51 36 91 171 318 257 298 214 261 335 167 200 255 186 144 162 176 187 229 234 143 164 167 185 204 212 224 240 145 196 242 249 226 212 219 208 212 203 197 189
326 326 333 344 82 345 14 329 312 194 324 10 12 82 115 248 194 220 193 161 163 222 180 255 236 217 215 215 207 228 218 226 214 204 233 204 245 243 226 215 213 209 203 198 187
333 335 342 43 66 255 339 327 137 179 62 336 9 93 137 321 316 53 201 191 202 179 186 228 201 192 218 236 196 238 182 218 219 224 239 195 240 229 191 223 223 215 205 193 181
4 17 10 21 306 343 336 348 186 262 49 5 338 352 30 19 26 342 355 22 68 180 231 261 210 232 257 229 194 194 197 116 122 233 243 235 229 239 203 224 233 218 200 184 174
28 28 39 21 342 324 335 240 27 44 336 353 345 358 43 9 17 12 1 32 358 296 253 273 259 260 225 254 218 210 209 257 238 214 253 229 223 245 236 273 276 240 189 179 168
48 61 53 22 355 348 345 67 59 341 357 330 335 39 52 14 11 0 8 23 43 4 308 315 306 1 8 245 298 211 220 239 263 263 268 157 235 236 327 311 272 256 176 172 169
79 59 29 6 354 343 74 55 28 333 319 321 311 26 12 12 343 353 31 10 16 9 344 309 278 314 292 299 271 169 226 301 266 254 268 259 212 184 65 33 56 149 165 172 166
51 67 20 347 348 22 69 94 76 3 316 2 32 24 10 3 5 359 18 15 354 4 344 303 282 279 286 289 158 257 48 242 211 263 260 252 263 332 336 343 128 154 170 168 162
60 58 353 357 32 47 69 63 49 13 20 23 10 353 358 350 325 342 347 74 17 360 20 345 284 272 287 261 289 247 238 162 16 255 276 280 268 337 322 307 174 161 168 169 162
72 55 348 20 49 32 51 25 29 4 12 16 31 348 3 347 319 339 5 13 29 5 358 29 296 280 276 235 246 217 259 244 246 232 223 289 261 87 66 122 173 158 167 165 160
76 11 2 52 81 69 45 49 53 19 24 14 15 6 357 348 325 353 348 334 358 357 344 346 328 315 276 205 195 238 110 264 256 209 229 231 254 54 103 177 200 161 155 159 155
97 83 25 47 29 69 85 26 10 14 58 10 26 29 354 334 7 313 320 313 334 332 24 269 266 236 264 310 349 302 1 356 272 220 251 237 286 297 224 206 187 173 164 153 151
30 83 8 27 38 63 68 37 1 7 18 19 41 12 348 300 318 289 317 325 309 359 347 309 277 280 267 241 283 303 342 9 336 325 268 331 307 339 336 271 201 170 160 159 148
96 131 60 72 15 52 22 41 12 338 315 30 2 332 319 271 308 307 315 310 309 331 325 349 274 321 287 280 210 213 257 310 333 346 307 325 296 2 332 209 172 169 164 157 152
37 78 96 8 57 65 41 359 1 339 255 307 328 315 308 315 318 303 282 268 269 297 322 328 328 317 288 324 279 235 2 71 92 61 304 332 340 331 24 95 158 162 158 149 135